Location: Unspecified
(47.2333°N, 39.7000°E)
Time: 22:51:50
(UTC+00:00)

ISS - Pass Details

Date: 14 July 2022
Orbit: 412 x 420 km, 51.6° (Epoch: 17 August)

Event Time Altitude Azimuth Distance (km) Brightness Sun altitude
Rises 20:29:43 0° 274° (W) 2,352 0.3 -20.0°
Reaches altitude 10° 20:31:53 10° 282° (WNW) 1,491 -0.7 -20.1°
Maximum altitude 20:35:03 39° 353° (N) 644 -2.3 -20.2°
Drops below altitude 10° 20:38:15 10° 64° (ENE) 1,498 -0.8 -20.3°
Sets 20:40:26 0° 73° (ENE) 2,364 0.1 -20.4°
